This demonstration page uses our WeatherBlox Daily Observations layout. Learn more.

Left ArrowRight Arrow

41.55636, -103.73856

Hourly Observations for July 3, 2020

Temp ( °F °C ) Dew Point ( °F °C ) Humidity (%) Winds ( mph kmh ) Pressure ( in mb ) Visibility ( mi km ) Precip ( " mm )
6:58 pm 18:58 Clear 86 29.8 44 6.8 23 23 SE 17 28 29.83 1010 10 16 0.00 0.00
7:58 pm 19:58 Clear 81 27 48 8.7 32 32 ESE 12 19 29.83 1010 10 16 0.00 0.00
8:58 pm 20:58 Clear 78 25.8 40 4.4 25 25 SSE 24 39 29.85 1011 10 16 0.00 0.00
9:58 pm 21:58 Clear 74 23.1 46 7.8 38 38 S 25 41 29.90 1012 10 16 0.00 0.00
10:58 pm 22:58 Mostly Cloudy 72 22.2 48 9.1 43 43 S 25 41 29.91 1013 10 16 0.00 0.00
11:58 pm 23:58 Mostly Cloudy 72 22.2 46 7.6 39 39 SSW 26 43 29.91 1013 10 16 0.00 0.00
12:58 am 00:58 Clear 73 22.5 43 6.3 35 35 SSW 29 46 29.91 1013 10 16 0.00 0.00
1:58 am 01:58 Clear 71 21.8 45 7.3 39 39 SSW 30 48 29.91 1013 10 16 0.00 0.00
2:58 am 02:58 Clear 69 20.7 45 7 41 41 SSW 26 43 29.91 1013 10 16 0.00 0.00
3:58 am 03:58 Clear 67 19.5 46 7.7 47 47 SSW 18 30 29.93 1014 10 16 0.00 0.00
4:58 am 04:58 Clear 66 19.1 46 7.7 48 48 S 12 19 29.97 1015 10 16 0.00 0.00
5:58 am 05:58 Sunny 63 17.3 47 8.2 55 55 SE 14 22 30.02 1017 10 16 0.00 0.00
6:58 am 06:58 Sunny 64 17.6 46 8 54 54 SE 15 24 30.03 1017 10 16 0.00 0.00
7:58 am 07:58 Sunny 67 19.5 48 9.1 51 51 SE 14 22 30.05 1018 10 16 0.00 0.00
8:58 am 08:58 Sunny 72 22 50 9.9 46 46 SSE 17 28 30.05 1018 10 16 0.00 0.00
9:58 am 09:58 Sunny 77 25.2 50 9.9 38 38 S 13 20 30.05 1018 10 16 0.00 0.00
10:58 am 10:58 Sunny 82 27.8 49 9.2 31 31 S 14 22 30.03 1017 10 16 0.00 0.00
11:58 am 11:58 Sunny 86 29.8 49 9.5 28 28 S 13 20 30.01 1016 10 16 0.00 0.00
12:58 pm 12:58 Sunny 89 31.4 48 8.8 25 25 SSW 9 15 30.00 1016 10 16 0.00 0.00
1:58 pm 13:58 Sunny 92 33.1 47 8.1 21 21 SSW 16 26 29.97 1015 10 16 0.00 0.00
2:58 pm 14:58 Sunny 92 33.6 43 5.9 18 18 SSE 15 24 29.96 1014 10 16 0.00 0.00
3:58 pm 15:58 Sunny 94 34.3 43 6.2 17 17 SE 16 26 29.95 1014 10 16 0.00 0.00
4:58 pm 16:58 Sunny 92 33.1 44 6.6 19 19 SSE 16 26 29.93 1014 10 16 0.00 0.00
5:58 pm 17:58 Sunny 92 33.4 43 6.2 18 18 SSE 17 28 29.91 1013 10 16 0.00 0.00

Powered by AerisWeather